| time (UTC) | temp C | wind direction | speed KPH | gust KPH | rain 1hr cm | rain 24hr cm | rain mn cm | humidity % | barometer mb |
| 20260504141142 | 13 | 217 | 1.6 | 9.7 | 0.00 | 0.00 | 0.00 | 55 | 1005.5 |
| 20260504140242 | 12 | 230 | 3.2 | 11.3 | 0.00 | 0.00 | 0.00 | 55 | 1005.5 |
| 20260504110241 | 6 | 209 | 0.0 | 4.8 | 0.00 | 0.00 | 0.00 | 79 | 1006.4 |
| 20260504080241 | 5 | 273 | 0.0 | 1.6 | 0.00 | 0.00 | 0.00 | 80 | 1006.2 |
| 20260504050241 | 2 | 0 | 0.0 | 0.0 | 0.00 | 0.00 | 0.00 | 83 | 1006.6 |
| 20260504044440 | 2 | 1 | 0.0 | 3.2 | 0.00 | 0.00 | 0.00 | 80 | 1006.5 |
| 20260504042640 | 1 | 319 | 0.0 | 1.6 | 0.00 | 0.00 | 0.00 | 85 | 1006.5 |
| 20260504041740 | 0 | 0 | 0.0 | 0.0 | 0.00 | 0.00 | 0.00 | 87 | 1006.5 |
| 20260504040840 | 0 | 0 | 0.0 | 0.0 | 0.00 | 0.00 | 0.00 | 87 | 1006.4 |
| 20260504033242 | 0 | 319 | 0.0 | 1.6 | 0.00 | 0.00 | 0.00 | 86 | 1006.3 |
| 20260504031440 | 0 | 0 | 0.0 | 0.0 | 0.00 | 0.00 | 0.00 | 85 | 1006.3 |
| 20260504030540 | 0 | 319 | 0.0 | 1.6 | 0.00 | 0.00 | 0.00 | 84 | 1006.4 |
| 20260504025640 | 0 | 0 | 0.0 | 0.0 | 0.00 | 0.00 | 0.00 | 84 | 1006.3 |
| 20260504024740 | 0 | 0 | 0.0 | 0.0 | 0.00 | 0.00 | 0.00 | 84 | 1006.3 |
| 20260504023840 | 0 | 319 | 0.0 | 1.6 | 0.00 | 0.00 | 0.00 | 83 | 1006.3 |
| 20260504022940 | 0 | 319 | 0.0 | 4.8 | 0.00 | 0.00 | 0.00 | 82 | 1006.4 |
| 20260504022040 | 0 | 319 | 0.0 | 1.6 | 0.00 | 0.00 | 0.00 | 82 | 1006.4 |
| 20260504020240 | 0 | 0 | 0.0 | 0.0 | 0.00 | 0.00 | 0.00 | 81 | 1006.4 |
| 20260504015340 | 1 | 0 | 0.0 | 0.0 | 0.00 | 0.00 | 0.00 | 80 | 1006.3 |
| 20260504014440 | 1 | 319 | 0.0 | 1.6 | 0.00 | 0.00 | 0.00 | 80 | 1006.2 |
| 20260504013540 | 1 | 0 | 0.0 | 0.0 | 0.00 | 0.00 | 0.00 | 78 | 1006.1 |
| 20260504012640 | 1 | 0 | 0.0 | 0.0 | 0.00 | 0.00 | 0.00 | 77 | 1006.0 |
| 20260504010840 | 2 | 0 | 0.0 | 0.0 | 0.00 | 0.00 | 0.00 | 75 | 1005.8 |
| 20260504005940 | 2 | 0 | 0.0 | 0.0 | 0.00 | 0.00 | 0.00 | 73 | 1005.7 |
| 20260504005040 | 3 | 0 | 0.0 | 0.0 | 0.00 | 0.00 | 0.00 | 72 | 1005.7 |
| 20260504003240 | 4 | 0 | 0.0 | 0.0 | 0.00 | 0.00 | 0.00 | 69 | 1005.5 |
| 20260504002340 | 5 | 0 | 0.0 | 0.0 | 0.00 | 0.00 | 0.00 | 66 | 1005.4 |
| 20260504001440 | 5 | 0 | 0.0 | 0.0 | 0.00 | 0.00 | 0.00 | 64 | 1005.3 |
| 20260504000540 | 6 | 0 | 0.0 | 0.0 | 0.00 | 0.00 | 0.00 | 62 | 1005.3 |
| 20260503235640 | 6 | 0 | 0.0 | 0.0 | 0.00 | 0.00 | 0.00 | 59 | 1005.2 |
| 20260503234740 | 6 | 0 | 0.0 | 0.0 | 0.00 | 0.00 | 0.00 | 54 | 1005.1 |
| 20260503233840 | 7 | 320 | 0.0 | 4.8 | 0.00 | 0.00 | 0.00 | 50 | 1005.0 |
| 20260503232940 | 7 | 315 | 0.0 | 6.4 | 0.00 | 0.00 | 0.00 | 48 | 1005.0 |
| 20260503232040 | 7 | 314 | 1.6 | 14.5 | 0.00 | 0.00 | 0.00 | 48 | 1004.9 |
| 20260503231140 | 7 | 312 | 1.6 | 12.9 | 0.00 | 0.00 | 0.00 | 49 | 1004.8 |
| 20260503230240 | 7 | 293 | 0.0 | 3.2 | 0.00 | 0.00 | 0.00 | 50 | 1004.8 |
| 20260503225340 | 7 | 269 | 1.6 | 9.7 | 0.00 | 0.00 | 0.00 | 49 | 1004.7 |
| 20260503224440 | 7 | 296 | 3.2 | 16.1 | 0.00 | 0.00 | 0.00 | 48 | 1004.7 |
| 20260503223540 | 7 | 268 | 4.8 | 11.3 | 0.00 | 0.00 | 0.00 | 50 | 1004.8 |
| 20260503221740 | 7 | 262 | 1.6 | 9.7 | 0.00 | 0.00 | 0.00 | 52 | 1004.8 |
| 20260503220840 | 7 | 293 | 3.2 | 19.3 | 0.00 | 0.00 | 0.00 | 50 | 1004.8 |
| 20260503215940 | 7 | 299 | 1.6 | 12.9 | 0.00 | 0.00 | 0.00 | 51 | 1004.7 |
| 20260503215040 | 7 | 320 | 1.6 | 19.3 | 0.00 | 0.00 | 0.00 | 51 | 1004.6 |
| 20260503214140 | 7 | 294 | 3.2 | 16.1 | 0.00 | 0.00 | 0.00 | 53 | 1004.6 |
| 20260503213240 | 7 | 289 | 1.6 | 9.7 | 0.00 | 0.00 | 0.00 | 53 | 1004.5 |
| 20260503212340 | 7 | 306 | 1.6 | 17.7 | 0.00 | 0.00 | 0.00 | 51 | 1004.5 |
| 20260503211440 | 7 | 290 | 4.8 | 12.9 | 0.00 | 0.00 | 0.00 | 51 | 1004.5 |
| 20260503205640 | 7 | 298 | 6.4 | 20.9 | 0.00 | 0.00 | 0.00 | 51 | 1004.4 |
| 20260503204739 | 7 | 277 | 4.8 | 20.9 | 0.00 | 0.00 | 0.00 | 50 | 1004.5 |
| 20260503203840 | 7 | 294 | 4.8 | 20.9 | 0.00 | 0.00 | 0.00 | 51 | 1004.3 |
| 20260503202939 | 7 | 298 | 3.2 | 19.3 | 0.00 | 0.00 | 0.00 | 47 | 1004.5 |
| 20260503202039 | 7 | 298 | 4.8 | 22.5 | 0.00 | 0.00 | 0.00 | 50 | 1004.5 |
| 20260503201140 | 7 | 316 | 3.2 | 17.7 | 0.00 | 0.00 | 0.00 | 50 | 1004.2 |
| 20260503195339 | 7 | 305 | 3.2 | 19.3 | 0.00 | 0.00 | 0.00 | 48 | 1004.4 |
| 20260503194439 | 7 | 314 | 3.2 | 20.9 | 0.00 | 0.00 | 0.00 | 53 | 1004.4 |
| 20260503193539 | 7 | 315 | 3.2 | 20.9 | 0.00 | 0.03 | 0.00 | 50 | 1004.4 |
| 20260503192639 | 7 | 290 | 1.6 | 14.5 | 0.00 | 0.03 | 0.00 | 47 | 1004.4 |
| 20260503191739 | 7 | 291 | 3.2 | 14.5 | 0.00 | 0.03 | 0.00 | 53 | 1004.5 |
| 20260503190839 | 7 | 324 | 4.8 | 25.7 | 0.00 | 0.05 | 0.00 | 47 | 1004.7 |
| 20260503185939 | 7 | 311 | 3.2 | 20.9 | 0.00 | 0.05 | 0.00 | 49 | 1004.5 |
| 20260503185039 | 7 | 306 | 3.2 | 17.7 | 0.00 | 0.05 | 0.00 | 50 | 1004.5 |
| 20260503184139 | 7 | 319 | 3.2 | 25.7 | 0.00 | 0.05 | 0.00 | 49 | 1004.5 |
| 20260503182340 | 8 | 320 | 3.2 | 16.1 | 0.00 | 0.05 | 0.00 | 43 | 1004.1 |
| 20260503181439 | 8 | 321 | 4.8 | 25.7 | 0.00 | 0.05 | 0.00 | 44 | 1004.2 |
| 20260503180539 | 8 | 336 | 1.6 | 16.1 | 0.00 | 0.05 | 0.00 | 42 | 1004.0 |
| 20260503175639 | 8 | 332 | 3.2 | 24.1 | 0.00 | 0.05 | 0.00 | 47 | 1003.9 |
| 20260503174739 | 8 | 313 | 3.2 | 22.5 | 0.00 | 0.05 | 0.00 | 48 | 1004.0 |
| 20260503173839 | 8 | 326 | 3.2 | 19.3 | 0.00 | 0.05 | 0.00 | 45 | 1004.0 |
| 20260503172939 | 8 | 313 | 3.2 | 20.9 | 0.00 | 0.05 | 0.00 | 47 | 1004.2 |
| 20260503172039 | 8 | 321 | 3.2 | 25.7 | 0.00 | 0.05 | 0.00 | 47 | 1003.9 |
| 20260503171139 | 8 | 291 | 1.6 | 12.9 | 0.00 | 0.05 | 0.00 | 50 | 1003.9 |
| 20260503170239 | 8 | 290 | 3.2 | 17.7 | 0.00 | 0.05 | 0.00 | 52 | 1003.9 |